ARG1647 SAZN-SABE

Flight info

Callsign ARG1647
Flight time N/A
Altitude 37000
Route NIDBA3C NIDBA DCT ISMIL UT655 ASADA ASADA8Q
Aircraft B738/M-SDE2E3FGHIRWXY/LB1

Departure

Time 2026-04-24 22:33
Airport Presidente Perón International Airport (SAZN)

Arrival

Time N/A
Airport Aeroparque Jorge Newbery (SABE)
Time Latitude Longitude Altitude Speed Heading
2026-04-24 21:56 -38.95156 -68.14069 903 ft 0 kts 179°
2026-04-24 22:26 -38.95148 -68.14069 906 ft 4 kts 179°
2026-04-24 22:26 -38.95121 -68.14070 904 ft 4 kts 172°
2026-04-24 22:26 -38.95099 -68.14080 903 ft 4 kts 122°
2026-04-24 22:27 -38.95095 -68.14106 903 ft 4 kts 91°
2026-04-24 22:27 -38.95095 -68.14117 903 ft 0 kts 91°
2026-04-24 22:29 -38.95095 -68.14104 903 ft 6 kts 90°
2026-04-24 22:29 -38.95095 -68.14031 906 ft 9 kts 89°
2026-04-24 22:29 -38.95060 -68.13980 903 ft 9 kts 358°
2026-04-24 22:30 -38.95014 -68.14024 903 ft 8 kts 315°
2026-04-24 22:30 -38.94973 -68.14076 904 ft 8 kts 314°
2026-04-24 22:30 -38.94928 -68.14112 905 ft 8 kts 348°
2026-04-24 22:30 -38.94904 -68.14137 905 ft 4 kts 283°
2026-04-24 22:31 -38.94904 -68.14143 905 ft 0 kts 271°
2026-04-24 22:32 -38.94903 -68.14266 904 ft 45 kts 270°
2026-04-24 22:33 -38.94902 -68.14999 901 ft 117 kts 270°
2026-04-24 22:33 -38.94900 -68.16283 1025 ft 161 kts 270°
2026-04-24 22:33 -38.94894 -68.17746 1801 ft 167 kts 270°
2026-04-24 22:33 -38.94885 -68.19259 2532 ft 178 kts 266°
2026-04-24 22:34 -38.94887 -68.20975 2816 ft 204 kts 267°
2026-04-24 22:34 -38.94882 -68.22859 3294 ft 215 kts 266°
2026-04-24 22:34 -38.94873 -68.24781 4010 ft 216 kts 268°
2026-04-24 22:34 -38.94497 -68.26737 4394 ft 245 kts 298°
2026-04-24 22:35 -38.93224 -68.28292 5049 ft 263 kts 326°
2026-04-24 22:35 -38.91451 -68.28997 5896 ft 274 kts 352°
2026-04-24 22:35 -38.89547 -68.28623 6764 ft 285 kts 19°
2026-04-24 22:35 -38.87911 -68.27124 7509 ft 298 kts 47°
2026-04-24 22:36 -38.86890 -68.24787 8239 ft 306 kts 68°
2026-04-24 22:36 -38.86237 -68.22163 8983 ft 311 kts 73°
2026-04-24 22:36 -38.85680 -68.19464 9707 ft 316 kts 74°
2026-04-24 22:36 -38.85122 -68.16715 10340 ft 324 kts 74°
2026-04-24 22:37 -38.84517 -68.13826 10527 ft 347 kts 73°
2026-04-24 22:37 -38.83850 -68.10761 10873 ft 362 kts 73°
2026-04-24 22:37 -38.83148 -68.07622 11490 ft 368 kts 72°
2026-04-24 22:37 -38.82437 -68.04504 12230 ft 371 kts 72°
2026-04-24 22:38 -38.81694 -68.01283 12981 ft 374 kts 72°
2026-04-24 22:38 -38.80947 -67.98076 13713 ft 378 kts 72°
2026-04-24 22:38 -38.80187 -67.94826 14402 ft 382 kts 72°
2026-04-24 22:38 -38.79419 -67.91550 15076 ft 386 kts 72°
2026-04-24 22:39 -38.78639 -67.88233 15760 ft 391 kts 72°
2026-04-24 22:39 -38.77850 -67.84878 16445 ft 395 kts 72°
2026-04-24 22:39 -38.77053 -67.81494 17107 ft 400 kts 72°
2026-04-24 22:39 -38.76246 -67.78067 17776 ft 404 kts 72°
2026-04-24 22:40 -38.75428 -67.74602 18424 ft 409 kts 72°
2026-04-24 22:40 -38.74600 -67.71097 19014 ft 412 kts 72°
2026-04-24 22:40 -38.73766 -67.67572 19613 ft 415 kts 72°
2026-04-24 22:40 -38.72924 -67.64016 20212 ft 418 kts 72°
2026-04-24 22:41 -38.72074 -67.60438 20789 ft 422 kts 72°
2026-04-24 22:41 -38.71136 -67.56870 21347 ft 425 kts 65°
2026-04-24 22:41 -38.69840 -67.53463 21906 ft 427 kts 60°
2026-04-24 22:41 -38.68450 -67.50095 22465 ft 429 kts 59°
2026-04-24 22:42 -38.67033 -67.46719 23004 ft 433 kts 59°
2026-04-24 22:42 -38.65603 -67.43307 23547 ft 436 kts 59°
2026-04-24 22:42 -38.64172 -67.39874 24025 ft 439 kts 60°
2026-04-24 22:42 -38.62739 -67.36411 24499 ft 441 kts 60°
2026-04-24 22:43 -38.61310 -67.32942 24959 ft 443 kts 60°
2026-04-24 22:43 -38.59870 -67.29440 25405 ft 445 kts 60°
2026-04-24 22:43 -38.58425 -67.25923 25835 ft 448 kts 60°
2026-04-24 22:43 -38.56973 -67.22393 26268 ft 450 kts 60°
2026-04-24 22:44 -38.55512 -67.18844 26682 ft 453 kts 60°
2026-04-24 22:44 -38.54039 -67.15272 27090 ft 455 kts 60°
2026-04-24 22:44 -38.52560 -67.11689 27496 ft 457 kts 60°
2026-04-24 22:44 -38.51073 -67.08092 27874 ft 460 kts 60°
2026-04-24 22:45 -38.49572 -67.04466 28254 ft 463 kts 60°
2026-04-24 22:45 -38.48066 -67.00832 28633 ft 465 kts 60°
2026-04-24 22:45 -38.46549 -66.97174 28994 ft 467 kts 60°
2026-04-24 22:45 -38.45025 -66.93506 29343 ft 470 kts 60°
2026-04-24 22:46 -38.43509 -66.89859 29686 ft 472 kts 60°
2026-04-24 22:46 -38.41948 -66.86109 30032 ft 474 kts 60°
2026-04-24 22:46 -38.40415 -66.82431 30322 ft 477 kts 60°
2026-04-24 22:46 -38.38836 -66.78646 30596 ft 479 kts 59°
2026-04-24 22:47 -38.37270 -66.74896 30864 ft 480 kts 59°
2026-04-24 22:47 -38.35694 -66.71127 31140 ft 482 kts 59°
2026-04-24 22:47 -38.34114 -66.67354 31394 ft 484 kts 59°
2026-04-24 22:47 -38.32523 -66.63562 31642 ft 486 kts 59°
2026-04-24 22:48 -38.30928 -66.59774 31939 ft 486 kts 59°
2026-04-24 22:48 -38.29331 -66.55986 32339 ft 484 kts 59°
2026-04-24 22:48 -38.27742 -66.52220 32719 ft 483 kts 59°
2026-04-24 22:48 -38.26173 -66.48505 33032 ft 483 kts 59°
2026-04-24 22:49 -38.24562 -66.44696 33346 ft 483 kts 59°
2026-04-24 22:49 -38.22971 -66.40936 33680 ft 482 kts 59°
2026-04-24 22:49 -38.21385 -66.37192 34027 ft 481 kts 59°
2026-04-24 22:49 -38.19797 -66.33449 34299 ft 481 kts 59°
2026-04-24 22:50 -38.18231 -66.29760 34528 ft 481 kts 59°
2026-04-24 22:50 -38.16620 -66.25973 34769 ft 481 kts 58°
2026-04-24 22:50 -38.15047 -66.22278 35002 ft 481 kts 58°
2026-04-24 22:50 -38.13433 -66.18490 35232 ft 482 kts 58°
2026-04-24 22:51 -38.11837 -66.14752 35459 ft 482 kts 58°
2026-04-24 22:51 -38.10238 -66.11006 35701 ft 482 kts 58°
2026-04-24 22:51 -38.08660 -66.07319 35921 ft 482 kts 58°
2026-04-24 22:51 -38.07056 -66.03572 36129 ft 483 kts 58°
2026-04-24 22:52 -38.05453 -65.99832 36298 ft 484 kts 58°
2026-04-24 22:52 -38.03843 -65.96082 36458 ft 485 kts 58°
2026-04-24 22:52 -38.02226 -65.92319 36676 ft 485 kts 58°
2026-04-24 22:52 -38.00613 -65.88569 36896 ft 485 kts 58°
2026-04-24 22:53 -37.98995 -65.84812 37072 ft 486 kts 57°
2026-04-24 22:53 -37.97370 -65.81044 37073 ft 489 kts 57°
2026-04-24 22:53 -37.94109 -65.73497 37084 ft 486 kts 57°
2026-04-24 22:54 -37.90851 -65.65967 37074 ft 483 kts 57°
2026-04-24 22:54 -37.87647 -65.58585 37074 ft 480 kts 57°
2026-04-24 22:55 -37.84432 -65.51195 37077 ft 478 kts 57°
2026-04-24 22:55 -37.81201 -65.43787 37085 ft 478 kts 57°
2026-04-24 22:56 -37.78001 -65.36467 37081 ft 479 kts 57°
2026-04-24 22:56 -37.74763 -65.29077 37081 ft 481 kts 57°
2026-04-24 22:57 -37.71508 -65.21663 37083 ft 484 kts 57°
2026-04-24 22:57 -37.68234 -65.14223 37082 ft 486 kts 57°
2026-04-24 22:58 -37.65476 -65.07970 37081 ft 488 kts 57°
2026-04-24 22:58 -37.62171 -65.00490 37078 ft 489 kts 57°
2026-04-24 22:59 -37.58848 -64.92987 37075 ft 490 kts 56°
2026-04-24 23:00 -37.53880 -64.81803 37064 ft 489 kts 56°
2026-04-24 23:00 -37.50553 -64.74333 37077 ft 488 kts 56°
2026-04-24 23:01 -37.47228 -64.66886 37065 ft 487 kts 56°
2026-04-24 23:01 -37.43909 -64.59469 37068 ft 485 kts 56°
2026-04-24 23:02 -37.40597 -64.52085 37062 ft 484 kts 56°
2026-04-24 23:02 -37.37263 -64.44668 37064 ft 483 kts 56°
2026-04-24 23:03 -37.33958 -64.37331 37064 ft 482 kts 56°
2026-04-24 23:03 -37.30650 -64.30064 37070 ft 482 kts 55°
2026-04-24 23:04 -37.27278 -64.22711 37067 ft 483 kts 55°
2026-04-24 23:04 -37.23947 -64.15462 37071 ft 483 kts 55°
2026-04-24 23:05 -37.20583 -64.08144 37059 ft 484 kts 55°
2026-04-24 23:05 -37.17211 -64.00824 37068 ft 485 kts 55°
2026-04-24 23:06 -37.13829 -63.93497 37075 ft 487 kts 54°
2026-04-24 23:06 -37.10429 -63.86147 37066 ft 488 kts 54°
2026-04-24 23:07 -37.07018 -63.78790 37071 ft 489 kts 54°
2026-04-24 23:07 -37.03596 -63.71426 37054 ft 489 kts 54°
2026-04-24 23:08 -37.00169 -63.64065 37070 ft 490 kts 54°
2026-04-24 23:08 -36.96736 -63.56710 37064 ft 490 kts 54°
2026-04-24 23:09 -36.93297 -63.49359 37063 ft 490 kts 54°
2026-04-24 23:09 -36.89855 -63.42016 37047 ft 489 kts 54°
2026-04-24 23:10 -36.86412 -63.34689 37053 ft 489 kts 54°
2026-04-24 23:10 -36.82965 -63.27371 37058 ft 489 kts 54°
2026-04-24 23:11 -36.79520 -63.20070 37066 ft 488 kts 54°
2026-04-24 23:11 -36.76065 -63.12767 37054 ft 489 kts 53°
2026-04-24 23:12 -36.72608 -63.05474 37052 ft 489 kts 53°
2026-04-24 23:12 -36.69142 -62.98179 37052 ft 489 kts 53°
2026-04-24 23:13 -36.65671 -62.90890 37051 ft 490 kts 53°
2026-04-24 23:13 -36.62190 -62.83593 37047 ft 490 kts 53°
2026-04-24 23:14 -36.58699 -62.76293 37051 ft 491 kts 53°
2026-04-24 23:14 -36.55196 -62.68984 37044 ft 492 kts 53°
2026-04-24 23:15 -36.51687 -62.61677 37049 ft 493 kts 53°
2026-04-24 23:15 -36.48165 -62.54360 37042 ft 493 kts 53°
2026-04-24 23:16 -36.44614 -62.46998 37045 ft 494 kts 53°
2026-04-24 23:16 -36.41074 -62.39675 37043 ft 495 kts 52°
2026-04-24 23:17 -36.37529 -62.32358 37044 ft 495 kts 52°
2026-04-24 23:17 -36.33973 -62.25033 37037 ft 495 kts 52°
2026-04-24 23:18 -36.30414 -62.17719 37044 ft 495 kts 52°
2026-04-24 23:18 -36.26849 -62.10407 37033 ft 496 kts 52°
2026-04-24 23:19 -36.23278 -62.03100 37041 ft 496 kts 52°
2026-04-24 23:19 -36.19702 -61.95798 37034 ft 496 kts 52°
2026-04-24 23:19 -36.17914 -61.92151 37265 ft 496 kts 52°
2026-04-24 23:20 -36.16118 -61.88496 37159 ft 499 kts 53°
2026-04-24 23:20 -36.12497 -61.81135 37050 ft 503 kts 53°
2026-04-24 23:21 -36.08860 -61.73739 37042 ft 504 kts 53°
2026-04-24 23:21 -36.05209 -61.66330 37037 ft 505 kts 53°
2026-04-24 23:22 -36.01573 -61.58963 37038 ft 506 kts 53°
2026-04-24 23:22 -35.97902 -61.51542 37034 ft 506 kts 53°